Regional Weather Roundup
Issued by NWS Midland/Odessa, TX

Skip options and go directly to product.
Home | Oldest Version | Previous Version | Current Version | All | Text Only | Save Text | Print | Product List | Glossary On

Skip product version selection by date and time.   
713
ASUS44 KMAF 311010
RWRMAF
MIDLAND AREA WEATHER ROUNDUP
NATIONAL WEATHER SERVICE MIDLAND TX
500 AM CDT TUE MAY 31 2016

...IN SOUTHWEST TEXAS AND SOUTHEAST NEW MEXICO...

CITY           SKY/WX    TMP DP  RH WIND       PRES   REMARKS
ALPINE         CLOUDY    56  55  96 NW7       30.07S
ANDREWS        FAIR      63  59  87 SW6       29.94F
ARTESIA        CLOUDY    61  59  94 CALM      29.94R
BIG SPRING     PTCLDY    61  60  95 SW3       29.93S
CARLSBAD       CLOUDY    61  59  93 N5        29.91F
DRYDEN           N/A     70  63  78 NE8       29.89F
FORT STOCKTON  NOT AVBL
GUAD PASS      NOT AVBL
HOBBS          PTCLDY    55  55 100 CALM      29.96F
MARFA          CLOUDY    56  54  93 N7        30.06R
MIDLAND AIRPK  CLOUDY    65  61  85 SW5       29.93S
MIDLAND INTL   CLOUDY    65  62  90 W5        29.92F
ODESSA         CLOUDY    66  61  84 SW3       29.94F
PECOS          MOCLDY    68  55  62 NE6       29.91F
PRESIDIO       FAIR      66  58  76 CALM      29.93R
SEMINOLE       MOCLDY    59  57  93 CALM      29.95R
SNYDER           N/A     63  61  94 S7        29.89S
WINK           PTCLDY    64  55  72 N3        29.91F
$$
...OTHER STATIONS IN TEXAS...

CITY           SKY/WX    TMP DP  RH WIND       PRES   REMARKS
ABILENE        CLOUDY    71  66  84 S8        29.86F
AMARILLO       PTCLDY    61  52  72 SW18      29.92F
AUSTIN         CLOUDY    75  73  93 S7        29.87F
BROWNSVILLE    MOCLDY    78  76  93 SE3       29.85R
CORPUS CHRISTI MOCLDY    77  75  93 SE7       29.85S
DALLAS FTW     CLOUDY    74  67  78 S8        29.85F
DEL RIO        CLOUDY    72  67  84 E5        29.82F
EL PASO        LGT RAIN  64  58  80 S21       29.98R
HOUSTON INT    MOCLDY    69  68  96 CALM      29.90S
LUBBOCK        MOCLDY    63  53  70 W7        29.89F
SAN ANGELO     PTCLDY    67  65  93 S6        29.88F
SAN ANTONIO    CLOUDY    76  72  87 S13       29.89R
WACO           CLOUDY    75  71  87 S12       29.87S
WICHITA FALLS  NOT AVBL
$$
...OTHER LOCATIONS IN NEW MEXICO...

CITY           SKY/WX    TMP DP  RH WIND       PRES   REMARKS
ALAMAGORDO     CLEAR     66  45  45 S10       29.96F
ALBUQUERQUE    PTCLDY    66  35  31 SW8       30.00R
CANNON AFB     CLOUDY    59  54  82 SW10      29.97F
CLOVIS         CLOUDY    55  48  76 SW7       29.97F
HOLLOMAN AFB   CLEAR     63  50  63 S14       29.94F
ROSWELL        CLOUDY    60  52  74 S5        29.94S
RUIDOSO          N/A     50  41  71 NE5       30.09S
SANTA FE       CLOUDY    52  27  38 NE6       30.03S
TRUTH OR CONSE CLEAR     61  49  64 SW3       29.97S
TUCUMCARI      CLEAR     62  48  60 S9        29.93F
$$

USA.gov is the U.S. government's official web portal to all federal, state and local government web resources and services.